RH
100 97 94 92 94 97 97 96 95 91 79 62 53 53 58 66 75 81 85 89 92 94 96 99 100 101 100 99 100 100 99 96 93 89 87 88 95 98 99 99 99 100 93 76 61 56 53 54 61 66 75 86 86 81 78 74 75 80 85 89 90 90 89
101 101 100 98 98 94 91 94 96 94 86 68 53 49 50 50 54 59 64 68 72 76 80 85 90 96 99 100 101 99 99 100 99 98 96 94 95 96 98 99 99 100 98 85 68 60 56 56 59 66 80 92 92 89 85 80 77 77 81 87 89 88 88
97 98 101 100 99 93 88 91 96 99 96 82 65 55 51 51 50 48 48 51 54 57 61 63 67 75 82 89 96 99 100 100 99 100 99 97 97 98 98 100 99 99 100 94 78 65 60 59 57 65 83 95 96 93 89 84 81 80 80 84 87 88 87
93 95 97 97 98 96 92 90 90 95 99 96 90 76 61 57 57 52 47 46 47 49 52 53 53 55 58 63 71 82 93 99 100 100 99 98 97 97 98 99 100 99 100 99 88 72 65 63 61 67 79 89 93 92 89 87 84 82 80 80 83 84 83
95 96 97 95 94 95 96 92 88 90 91 90 94 87 69 58 57 54 51 49 48 48 49 51 50 49 50 50 50 55 67 81 92 98 100 100 98 96 97 99 99 99 99 100 95 81 71 68 65 65 69 76 87 92 91 91 89 84 82 80 81 80 80
97 95 94 94 94 93 94 92 86 86 85 80 79 75 64 55 52 51 49 48 48 48 48 49 48 48 48 48 46 44 45 53 67 82 93 99 100 98 98 100 100 100 99 100 99 90 79 71 66 65 63 67 83 95 96 96 94 89 84 82 80 80 80
95 94 92 93 95 93 92 90 83 79 78 74 70 66 60 54 51 48 46 46 47 48 48 48 47 47 48 47 45 43 40 39 43 55 69 84 96 100 100 99 99 100 100 100 101 96 86 76 70 69 68 71 86 98 98 97 95 91 85 81 79 80 83
88 90 89 93 98 97 94 89 78 70 66 63 62 61 58 55 53 51 49 49 50 50 50 49 48 48 47 46 45 42 40 37 35 39 47 59 75 90 99 101 99 100 100 99 101 99 92 81 73 72 73 76 87 97 97 97 96 92 86 82 81 84 85
92 90 89 94 99 100 99 91 76 66 58 51 49 50 52 52 52 51 49 50 53 55 53 51 50 49 48 46 44 42 39 37 36 36 37 42 53 67 84 97 100 100 100 99 100 101 96 86 75 71 70 71 82 96 99 99 98 92 87 87 87 88 88
97 92 92 98 100 100 100 93 78 66 58 52 48 48 51 54 53 51 49 50 54 57 56 54 51 49 48 46 44 42 40 38 37 35 34 38 44 52 65 82 95 99 100 100 100 101 100 90 77 71 69 71 86 98 99 99 97 92 91 93 92 91 90
98 93 96 100 100 99 101 98 86 72 63 60 61 61 61 60 58 56 54 52 53 55 55 54 51 47 47 46 43 40 38 38 38 38 37 37 40 46 55 69 86 95 98 101 100 100 101 94 82 73 70 77 94 100 98 100 99 94 95 97 95 95 94
97 97 100 100 100 100 100 100 96 87 77 73 71 71 68 64 58 54 52 52 52 52 51 50 49 48 48 50 49 45 41 38 38 39 40 37 39 47 54 66 85 95 97 100 100 99 101 97 89 80 72 81 98 101 98 101 98 95 96 98 99 99 97
99 102 102 100 100 100 99 100 101 97 90 83 76 71 69 65 59 54 51 50 50 50 50 50 50 49 51 53 54 54 51 47 45 44 42 38 41 50 56 67 87 99 99 100 100 100 100 99 96 91 85 90 100 100 99 100 97 96 99 100 100 99 97
100 101 100 100 101 101 99 97 95 92 88 85 81 75 70 66 62 56 52 49 49 50 50 49 48 46 46 46 50 57 60 60 58 55 50 46 45 50 55 65 84 99 101 98 98 98 98 99 99 99 97 98 100 99 99 100 99 98 99 99 99 98 99
100 100 101 100 99 97 92 88 87 86 85 85 83 81 77 72 64 55 50 49 50 50 48 46 45 45 44 44 48 56 63 69 71 67 61 56 54 55 60 68 83 97 101 97 96 97 99 100 100 100 100 100 99 99 100 101 100 99 97 97 99 100 100
99 99 99 97 93 89 85 84 84 81 78 76 74 75 75 69 61 53 49 49 49 47 46 45 46 46 46 49 52 57 64 72 79 79 72 66 63 64 69 78 88 97 101 100 99 100 101 101 101 100 100 99 99 99 100 100 98 97 97 99 99 98 98
96 94 90 86 85 82 78 78 80 77 71 67 68 72 70 63 57 52 49 48 48 46 46 46 49 53 58 64 68 72 77 80 83 86 82 76 73 72 75 87 96 99 100 100 100 101 101 100 100 100 100 100 99 98 97 97 97 98 98 97 96 96 96
80 80 81 82 84 82 77 78 82 83 79 74 78 84 80 69 62 56 50 48 48 49 52 56 63 70 77 85 89 92 95 93 89 90 90 87 84 80 81 91 99 99 100 100 100 100 100 100 100 100 100 100 99 98 99 99 99 98 95 93 94 95 92
71 78 88 93 92 86 81 80 80 81 80 81 86 94 95 91 87 80 73 67 63 62 67 76 84 88 92 98 100 100 101 98 96 97 97 96 94 87 86 94 99 99 100 100 99 100 100 99 99 100 101 101 100 100 101 101 99 96 93 93 95 93 88
83 87 91 92 89 88 88 85 81 78 77 78 85 94 99 101 100 96 89 84 80 80 85 93 98 98 98 100 100 100 100 100 99 100 100 100 97 91 91 97 100 100 100 99 99 100 99 99 100 101 101 102 101 101 100 100 98 95 94 96 95 91 88
94 93 90 86 86 92 95 91 88 85 82 84 92 99 101 101 100 98 93 91 93 95 97 100 101 100 100 101 100 100 100 100 99 100 100 100 98 95 97 100 101 100 100 100 99 100 99 100 100 101 101 101 100 100 100 100 99 97 97 98 95 89 84
99 99 95 89 91 96 96 94 96 96 93 96 100 101 100 100 99 100 99 98 99 99 100 101 101 99 99 99 100 100 99 100 100 99 100 100 99 99 100 100 100 100 100 99 99 99 100 100 100 100 100 100 100 100 101 100 100 100 99 96 91 84 73
100 98 93 90 93 94 88 90 99 101 99 101 101 99 100 100 99 100 100 100 100 100 101 101 101 100 99 99 100 100 99 100 100 99 100 100 100 100 100 100 100 100 99 100 100 100 100 100 100 100 100 100 101 101 100 100 101 101 98 90 81 69 53
96 96 91 87 86 83 77 84 97 101 99 100 100 99 100 99 99 101 100 100 101 101 101 101 100 100 100 99 100 100 99 100 99 99 100 100 100 100 99 100 100 100 100 100 99 100 100 100 100 100 100 100 100 100 100 101 100 96 87 75 62 46 31
93 94 91 85 79 76 76 84 95 100 100 100 99 100 101 100 100 100 99 100 101 100 100 101 100 100 100 100 100 100 100 100 99 100 100 99 100 100 100 100 101 100 100 100 99 100 100 99 100 101 100 100 100 100 101 98 89 78 64 51 40 28 20
97 96 95 89 82 78 77 82 92 99 100 99 99 99 98 96 95 93 94 98 100 100 100 100 99 101 101 100 100 100 99 98 99 101 101 99 99 101 100 101 101 100 100 100 99 100 100 99 101 100 99 101 101 97 92 82 68 55 42 31 24 19 17
100 97 96 93 90 87 83 81 88 98 100 99 99 98 92 89 91 92 95 100 101 101 101 100 100 102 102 101 100 100 99 99 100 100 99 98 100 102 101 101 100 99 100 100 99 100 100 100 101 100 100 99 93 83 73 61 49 38 28 21 19 18 17
100 97 95 95 95 94 91 86 89 98 101 99 98 97 92 90 95 98 99 101 101 101 102 101 100 101 101 100 99 99 100 100 100 100 100 101 102 101 100 100 100 99 100 100 99 100 100 99 101 100 96 87 75 64 53 42 33 27 22 20 20 18 17
99 99 99 98 97 95 92 89 91 99 102 98 96 99 97 95 98 100 100 100 100 100 101 101 100 101 101 99 97 98 100 100 99 100 101 100 100 99 99 100 100 99 100 100 100 100 100 100 100 93 82 68 55 45 37 29 24 22 20 19 19 18 19
100 100 100 100 99 95 92 89 92 99 101 97 96 99 100 98 99 100 100 100 100 100 100 100 100 100 101 101 100 100 100 100 100 101 100 99 99 99 100 100 100 100 100 100 100 101 100 96 86 72 58 47 38 32 28 24 22 21 19 19 20 21 22
100 100 100 100 100 99 97 96 97 101 102 98 97 99 101 100 100 100 100 100 100 100 100 100 100 100 100 101 101 101 101 101 101 101 100 99 99 100 100 100 100 100 100 100 100 98 89 76 61 48 39 34 30 27 24 22 21 21 21 22 23 23 23
100 100 100 100 100 100 100 100 101 101 101 100 100 100 100 100 100 100 100 100 100 100 99 99 99 100 100 100 100 100 100 100 100 100 100 100 100 100 100 100 100 100 100 97 91 79 64 52 43 37 33 31 27 25 24 23 23 24 23 24 24 24 25
100 100 100 100 100 100 100 100 101 100 100 101 101 100 100 100 100 100 99 99 100 101 100 99 100 100 100 100 100 100 100 100 101 101 100 100 100 100 100 100 101 99 93 83 70 56 46 41 37 34 31 29 27 26 26 25 25 25 24 25 25 25 25
100 101 100 100 100 100 100 100 100 100 100 100 101 100 100 99 99 98 96 96 99 101 100 99 100 100 100 100 100 100 100 100 100 100 100 100 100 100 100 99 94 84 72 61 52 45 41 39 36 33 31 29 28 27 26 25 25 25 25 26 25 25 25
101 100 100 100 100 100 100 100 100 100 100 100 100 100 100 100 100 99 97 98 99 101 100 100 100 100 100 101 101 100 99 100 100 100 100 100 99 100 100 94 82 69 59 52 46 42 40 38 35 33 31 29 28 27 26 26 26 26 26 26 26 25 25
101 100 99 100 101 101 100 100 99 99 100 100 100 99 99 100 100 100 100 101 100 97 96 98 100 100 100 101 101 100 100 100 100 99 100 100 101 101 97 87 74 63 54 47 43 40 38 36 34 32 31 29 28 28 27 27 28 27 26 26 25 24 24
Wind_Speed
29 29 28 27 26 27 28 27 26 27 27 28 28 28 29 31 33 35 37 40 42 43 44 45 45 45 45 46 47 47 48 50 51 52 53 53 52 51 52 52 52 52 51 52 52 52 51 47 44 42 40 39 39 40 42 43 44 45 45 45 45 45 45
28 27 27 27 27 27 28 26 26 26 27 29 29 29 29 29 30 31 32 34 36 38 40 42 43 45 44 45 46 46 47 48 49 51 53 53 52 52 52 51 51 51 51 51 52 53 53 50 46 43 42 40 39 39 40 41 43 44 44 44 44 44 44
28 25 26 27 27 28 28 27 25 25 27 28 29 29 29 30 30 31 31 32 33 35 36 38 40 42 43 44 45 46 47 47 48 50 51 52 52 52 51 51 50 50 50 51 52 53 53 51 47 44 43 41 40 41 41 42 43 43 43 43 42 42 43
32 29 28 27 27 27 28 28 27 26 27 27 28 29 29 29 31 32 33 33 34 34 35 36 37 39 39 40 42 44 46 47 49 50 50 50 51 51 51 51 50 49 49 50 51 52 52 50 47 45 44 43 42 42 43 43 44 44 43 43 42 43 43
31 29 30 29 27 27 27 28 28 28 29 28 27 28 28 28 30 32 33 34 34 35 35 36 37 37 38 38 39 41 43 45 47 49 49 48 48 49 50 50 50 49 49 49 50 51 50 49 47 47 46 45 44 43 43 44 44 43 43 43 43 43 42
32 30 31 31 29 28 29 29 28 28 28 28 28 28 28 28 29 30 31 33 33 34 35 36 37 37 38 39 39 39 40 42 44 46 47 47 46 46 48 49 50 49 49 48 49 50 50 48 47 47 48 47 45 43 43 44 44 43 43 43 43 42 41
36 36 35 32 29 28 28 29 28 27 27 28 28 28 28 28 28 29 30 30 32 33 34 35 36 37 38 39 39 39 39 39 41 42 45 46 46 44 44 47 50 50 49 48 49 50 49 48 48 47 47 47 45 44 45 45 44 42 41 42 43 42 42
40 39 36 31 28 27 28 28 28 26 26 26 26 27 28 28 28 29 29 29 30 31 33 34 35 36 37 38 38 38 38 39 39 40 42 43 45 45 44 44 48 50 50 48 48 50 49 49 49 48 47 47 46 46 46 44 42 39 39 41 43 42 42
36 34 31 27 26 26 26 27 27 25 24 24 24 26 27 27 28 28 29 29 30 31 32 33 34 35 36 36 37 37 37 38 39 40 40 41 42 44 45 43 44 47 50 50 48 48 49 49 49 49 48 48 47 45 42 41 39 39 40 42 42 41 40
28 26 24 23 24 25 26 27 25 23 22 22 23 24 25 26 27 28 30 31 32 32 32 32 33 34 35 36 37 38 38 38 39 39 40 40 40 41 43 44 43 43 46 49 49 49 50 50 49 49 49 48 46 42 39 40 40 40 41 41 40 39 37
23 22 21 22 23 24 25 26 23 21 21 22 23 24 25 26 28 29 31 32 33 33 32 32 33 33 35 37 38 39 39 39 40 40 40 41 41 41 41 43 43 42 42 45 48 49 50 49 49 49 49 48 44 41 40 41 41 41 41 39 37 36 35
17 18 18 20 22 23 24 24 22 20 21 22 23 24 26 27 29 30 31 32 32 32 33 33 34 34 35 37 38 39 39 40 40 40 41 41 42 42 41 41 42 42 41 41 45 47 48 49 49 48 49 48 43 41 42 42 42 42 40 37 35 35 34
13 14 15 17 20 22 22 22 21 21 22 23 24 25 27 29 30 30 31 31 31 32 33 33 34 35 35 36 37 38 40 41 41 41 42 42 41 42 43 42 41 41 41 40 42 46 47 47 47 47 47 46 42 41 42 42 41 40 38 36 36 36 35
10 12 13 16 18 20 22 23 23 23 23 24 25 26 27 29 30 30 30 31 31 32 33 33 34 35 36 36 36 37 39 40 41 42 43 43 42 42 43 43 43 41 41 40 41 44 46 47 46 46 45 44 42 41 41 40 39 38 37 37 37 36 35
10 12 14 16 19 21 23 23 24 24 24 25 25 26 27 28 29 29 30 31 32 33 34 34 35 35 36 35 35 37 39 41 41 42 43 44 43 43 42 43 43 42 41 40 40 42 45 46 46 45 43 42 40 39 37 37 37 37 37 38 38 37 35
11 13 15 17 19 21 22 22 22 23 24 24 25 25 27 28 29 30 31 32 33 34 35 35 36 36 37 37 37 38 40 41 42 42 43 44 44 44 43 42 42 41 40 39 38 40 42 43 43 42 39 37 35 35 35 35 36 37 37 38 38 36 33
12 13 15 16 16 17 18 18 18 20 22 23 24 25 27 29 30 31 33 34 35 36 36 36 37 38 39 39 39 39 39 41 43 43 43 44 45 45 43 41 40 40 39 38 38 39 40 40 39 36 34 34 34 34 34 34 35 36 37 38 36 33 30
10 10 11 11 10 12 14 15 16 18 22 24 24 26 28 30 32 33 34 36 36 37 38 39 39 39 39 39 39 40 42 43 45 44 44 44 44 44 43 40 39 39 39 39 39 39 39 38 35 34 34 35 34 33 32 33 35 36 36 35 33 30 30
8 6 6 7 9 10 13 15 17 18 21 23 24 25 28 30 33 35 37 38 39 39 39 39 39 39 39 39 40 41 41 42 43 42 41 41 42 43 41 39 38 38 39 39 39 38 37 35 33 32 32 32 31 31 33 34 34 34 33 32 30 30 30
7 6 7 9 10 12 14 18 21 21 21 22 23 24 26 29 32 34 35 36 37 37 36 36 36 37 37 37 37 35 35 35 35 35 36 38 39 40 39 37 36 37 38 38 37 35 32 30 29 29 29 30 31 32 33 32 32 31 31 30 30 30 30
10 12 13 13 12 14 17 20 22 22 22 21 22 22 23 25 27 29 30 30 31 31 31 31 31 32 31 30 29 28 28 30 30 31 33 35 36 37 37 36 36 36 37 37 34 31 28 28 28 29 30 31 31 31 30 30 30 30 30 29 29 29 28
13 15 17 16 15 17 18 19 21 20 20 19 19 19 21 24 26 26 26 26 26 26 26 26 25 24 23 23 23 23 24 27 28 29 31 33 36 38 38 36 35 35 35 34 32 29 28 29 29 29 29 29 28 28 28 28 28 28 28 28 27 27 27
14 16 18 18 19 19 19 18 20 20 18 17 17 18 20 22 22 20 18 19 19 19 20 20 20 19 19 20 21 22 23 26 28 29 31 33 36 36 34 32 32 32 33 32 31 29 29 28 27 27 27 27 27 27 27 27 26 26 26 26 26 27 27
16 18 19 19 19 19 18 17 19 19 16 15 15 15 14 14 13 13 13 14 15 16 16 17 17 17 17 18 19 19 20 24 26 26 28 31 32 30 29 29 31 32 33 32 30 28 26 25 25 25 26 26 26 26 25 25 24 24 25 25 25 26 26
16 18 18 17 17 18 17 17 18 16 12 12 12 10 8 9 10 12 12 11 12 13 14 15 16 15 14 15 16 16 19 22 23 23 26 29 28 27 27 29 32 33 33 30 26 24 23 23 24 25 25 25 25 24 23 23 23 23 23 24 24 24 24
18 17 15 14 16 18 18 17 15 12 10 10 10 7 6 8 9 9 8 8 9 11 13 14 15 14 13 13 13 15 18 20 20 22 26 27 25 25 27 30 31 30 28 24 22 21 22 23 24 24 24 23 22 22 21 21 21 21 21 21 21 21 22
18 18 16 14 15 17 17 16 12 9 8 7 6 5 6 7 6 6 6 6 7 8 10 12 13 13 13 14 14 16 19 20 21 24 26 25 24 25 27 28 27 24 21 20 19 20 21 22 23 22 22 21 20 20 20 19 19 19 19 19 19 20 22
20 20 18 16 14 15 16 14 9 7 6 5 4 3 6 7 5 5 5 5 5 6 6 8 9 11 14 16 17 18 20 20 22 22 21 20 22 23 24 23 22 20 19 19 19 20 21 21 21 20 19 19 18 18 18 17 17 17 17 18 19 20 20
23 19 17 15 13 14 15 13 9 6 6 4 3 2 7 6 3 2 2 2 4 5 4 4 5 9 13 15 16 17 18 18 18 17 17 19 20 20 20 20 19 19 19 19 20 20 19 19 18 17 17 17 17 16 16 16 16 16 17 18 18 18 19
22 19 17 13 10 12 13 12 9 8 7 4 1 4 7 6 2 3 4 3 1 1 1 0 2 6 9 11 12 15 16 17 17 19 20 21 21 20 19 19 18 19 19 18 18 18 17 17 17 16 16 15 15 14 14 14 15 16 16 16 17 18 19
21 20 20 14 6 7 9 10 10 9 7 4 3 6 8 7 4 5 6 5 4 4 4 5 5 5 8 11 13 14 17 18 19 20 20 19 18 18 18 17 17 17 17 17 17 17 17 16 15 14 13 12 12 12 13 14 14 14 15 15 17 18 19
20 20 21 16 8 2 5 8 9 9 8 5 4 6 8 7 6 7 7 6 6 6 8 9 10 10 10 13 16 17 18 17 17 16 16 15 15 15 16 16 17 17 17 17 17 16 15 14 12 11 11 11 11 12 12 13 13 13 14 16 17 18 20
19 18 19 16 12 8 2 5 8 8 8 6 5 6 7 6 6 8 8 6 6 6 7 9 12 12 12 13 15 17 17 16 16 16 16 15 15 15 15 16 16 17 17 16 15 13 12 10 10 10 10 11 11 11 11 12 13 14 15 16 17 18 20
18 16 16 14 12 10 7 4 5 6 7 6 5 6 6 6 7 8 7 5 4 5 5 6 9 11 12 13 14 16 17 17 17 16 16 16 16 16 16 16 15 15 14 13 11 10 9 9 9 10 10 10 10 10 11 12 13 14 15 16 17 19 20
18 14 14 13 10 9 8 6 5 5 6 6 5 5 4 4 6 8 7 4 2 3 5 5 4 6 9 11 13 14 15 15 15 14 14 14 14 13 12 13 12 12 11 9 8 8 8 8 9 9 10 10 10 10 11 12 13 14 15 17 18 20 21
18 14 13 13 11 8 6 5 5 6 7 7 6 4 3 4 7 8 7 4 2 4 6 6 4 3 6 8 11 13 13 13 13 12 12 12 11 10 10 11 10 10 9 8 8 8 8 9 10 10 9 9 9 9 10 12 13 14 16 18 19 21 22
Wind_Direction
266 264 263 260 255 253 254 254 253 252 249 247 245 245 244 242 242 243 242 242 243 244 244 244 243 243 244 245 246 247 247 247 248 248 249 248 246 244 243 244 244 245 247 248 250 253 255 255 253 253 253 253 254 256 257 256 254 253 253 253 253 254 254
267 267 266 262 258 255 253 252 253 253 251 248 245 244 245 245 244 245 245 245 246 246 246 247 245 244 243 242 242 243 244 245 247 247 247 247 246 243 241 241 242 243 244 246 249 252 254 255 253 251 250 251 251 253 253 254 254 253 253 254 255 256 256
261 263 263 261 260 258 255 251 249 251 252 251 248 245 243 245 247 247 247 248 249 250 251 251 250 248 246 245 244 242 241 241 243 245 246 246 246 243 240 239 239 241 242 244 248 250 253 254 253 250 249 248 248 249 249 250 251 252 253 254 256 257 257
264 264 263 261 260 258 256 252 248 247 247 249 250 248 245 245 247 248 248 248 248 249 251 252 253 253 252 251 250 248 245 242 241 242 244 245 245 244 242 239 238 239 240 243 246 249 251 252 251 250 248 246 245 246 246 248 249 251 252 254 256 257 258
267 268 266 264 261 259 257 255 252 248 247 248 249 251 250 248 247 248 248 249 248 249 249 250 251 252 253 253 253 253 251 249 246 244 243 243 244 244 243 240 238 238 239 241 245 248 249 249 249 248 248 246 245 244 245 246 248 250 251 253 254 255 257
264 269 272 268 263 261 259 256 254 251 250 250 250 252 253 252 249 248 249 249 249 248 248 248 248 249 249 250 251 253 253 253 251 249 247 245 244 244 243 241 238 238 238 239 243 245 246 247 246 246 247 247 246 245 246 247 247 248 249 252 254 255 256
263 268 273 269 263 260 259 258 255 252 251 252 252 253 254 253 253 252 250 250 249 248 248 248 248 248 248 248 249 249 250 251 251 251 251 249 247 245 244 242 240 239 238 238 240 243 243 244 245 244 245 245 245 245 245 245 245 246 248 251 253 255 256
262 264 266 263 260 260 260 259 257 254 251 251 252 253 255 256 256 257 256 254 252 251 250 250 249 248 248 249 249 248 247 247 248 249 250 250 250 248 246 244 241 239 239 238 240 241 241 241 242 243 243 243 243 244 245 245 246 247 248 250 252 253 255
260 257 255 254 257 259 259 259 258 256 255 254 253 254 256 258 260 261 261 259 256 253 251 250 249 248 248 249 249 248 247 246 246 247 247 248 249 249 248 247 244 241 239 238 239 241 241 239 240 241 242 242 242 244 246 247 246 246 246 247 250 252 255
253 242 240 246 252 256 259 258 257 256 256 257 258 258 259 260 260 260 258 257 256 253 251 249 248 248 248 248 248 247 247 246 245 246 246 246 247 248 248 248 247 245 241 238 239 241 241 239 239 240 241 241 241 243 244 244 243 244 245 247 249 251 253
242 230 231 238 243 249 255 258 259 259 258 259 260 261 262 260 257 256 255 254 254 252 251 249 247 246 246 247 248 247 247 246 245 245 245 244 245 246 246 246 248 248 245 241 239 241 242 239 237 239 241 241 240 241 242 242 242 243 244 246 248 250 252
232 227 229 235 240 245 252 257 261 263 261 260 261 262 263 261 259 257 256 255 253 251 250 249 248 247 246 246 248 248 247 246 245 245 244 243 243 244 244 244 245 247 248 244 239 240 242 239 237 237 239 240 241 241 242 242 241 242 243 245 247 248 248
221 228 233 240 248 251 253 257 260 262 261 261 262 262 262 262 262 261 260 258 255 253 251 250 249 249 249 248 248 249 249 248 246 245 244 243 243 242 242 242 242 243 245 245 240 238 240 239 237 237 239 241 243 242 241 241 240 242 244 245 245 244 244
232 238 242 250 255 255 254 255 258 261 262 263 263 263 262 261 261 261 260 258 256 255 254 253 253 252 252 252 252 252 252 251 249 247 245 243 242 242 241 241 240 241 242 244 242 239 238 237 236 236 239 241 243 243 241 240 240 242 243 244 244 244 243
241 248 251 255 256 255 255 256 259 261 262 262 261 260 259 259 259 258 256 254 253 254 255 256 257 259 259 259 258 257 256 254 252 249 246 243 242 241 241 240 240 241 241 243 244 242 239 238 237 237 239 242 244 245 244 242 241 241 241 242 243 244 244
241 253 258 260 261 261 262 262 263 263 263 262 260 259 257 256 256 255 254 253 253 255 257 260 263 265 266 265 262 259 257 255 253 251 247 244 241 240 240 238 238 240 241 241 241 241 239 239 238 238 240 243 245 245 243 241 240 240 240 241 242 243 244
255 263 267 268 270 272 271 270 268 267 267 266 264 263 260 258 257 255 254 254 255 258 260 262 265 266 266 267 265 261 257 253 251 250 247 244 241 239 238 235 234 237 238 236 236 237 237 238 238 238 239 240 241 240 239 239 239 239 239 241 242 243 245
272 280 284 286 287 284 280 277 275 271 268 267 265 264 263 263 262 259 258 258 258 259 261 262 264 265 265 266 264 261 259 255 251 249 247 243 240 239 236 232 231 235 235 233 232 233 233 233 233 233 235 237 239 239 239 239 238 238 239 240 242 244 245
295 298 299 298 294 292 290 290 286 276 266 262 260 259 260 261 261 260 260 261 261 262 263 264 264 264 263 262 261 259 257 254 250 248 244 240 237 236 233 229 230 234 235 232 231 231 231 230 230 232 236 238 239 238 237 236 237 238 239 241 243 245 246
308 297 298 296 293 297 302 303 299 286 272 265 263 263 263 263 263 263 262 263 264 264 264 263 262 261 260 259 258 256 251 248 244 240 235 233 232 231 229 227 229 232 233 232 231 230 230 231 232 234 236 236 235 234 234 234 235 237 239 241 243 245 247
312 301 296 292 288 293 301 306 303 291 277 272 272 271 270 267 267 268 268 267 265 263 261 260 258 257 256 256 255 250 243 238 235 230 227 228 227 225 224 224 225 227 229 229 227 224 226 228 229 230 231 231 231 231 230 231 233 236 238 241 243 246 248
311 301 292 286 283 287 293 300 304 295 281 277 278 275 272 271 271 272 270 266 262 257 254 253 252 251 251 251 250 245 237 231 227 224 222 222 222 220 220 219 220 223 225 224 221 219 220 223 225 226 228 228 228 228 228 230 233 235 238 241 244 247 249
302 296 289 281 278 281 285 293 305 305 288 278 282 281 274 272 270 266 259 252 248 245 243 243 244 245 246 244 242 239 234 230 228 224 219 219 219 218 216 215 216 219 220 218 217 217 218 220 222 223 224 223 224 225 227 229 232 235 238 242 244 247 248
299 298 293 281 272 274 280 288 305 310 294 281 289 289 278 266 255 244 239 236 236 238 239 240 242 243 242 238 232 231 231 231 230 225 217 216 216 213 210 211 213 215 214 213 214 215 215 216 217 217 218 219 221 224 226 228 231 234 238 241 244 246 249
308 305 300 286 271 270 275 285 300 309 300 294 303 303 283 260 242 233 234 236 238 239 239 239 240 237 232 226 219 216 220 223 222 216 212 212 211 206 206 209 211 212 212 210 210 209 209 210 211 213 215 218 220 223 225 227 231 233 237 241 245 249 253
319 312 304 289 274 270 274 281 292 303 302 305 317 312 281 264 252 241 243 250 251 245 238 236 236 230 221 216 208 204 209 212 209 206 207 207 202 200 204 208 209 209 207 204 202 202 202 206 209 212 215 217 219 222 224 227 231 235 240 245 250 255 258
326 317 309 294 275 269 272 272 276 293 302 308 324 309 267 257 264 267 267 269 268 256 239 233 231 223 214 211 206 201 203 204 203 204 205 201 196 197 202 203 202 200 197 194 195 197 201 205 209 211 213 215 218 222 225 229 234 239 244 248 253 257 261
327 318 312 302 281 265 264 263 263 278 288 301 329 294 239 237 266 287 282 272 265 258 246 237 228 214 207 208 206 201 201 203 205 207 204 198 195 196 196 194 191 188 187 189 192 197 202 205 207 209 211 214 219 223 228 233 238 242 246 250 254 259 264
334 330 324 311 285 261 256 254 252 254 263 286 331 220 211 218 251 331 348 289 249 249 256 252 231 214 209 209 207 203 201 202 202 199 193 190 190 189 186 184 183 182 184 188 193 197 201 202 204 208 211 215 220 226 231 237 241 246 250 253 258 262 267
344 345 340 324 290 261 251 245 237 233 242 265 254 177 194 197 148 80 66 65 62 282 296 287 215 209 205 201 197 196 192 188 185 183 182 182 181 179 178 178 178 180 184 189 193 197 198 200 203 207 212 218 224 230 236 242 246 250 255 259 264 268 271
351 350 351 349 323 266 244 230 224 221 225 236 204 177 184 180 136 104 101 101 99 106 115 113 116 141 160 161 163 169 172 172 173 176 177 176 172 170 171 173 176 180 184 188 192 195 197 199 203 208 215 223 231 237 242 247 252 257 262 267 271 274 276
355 353 359 10 19 336 232 212 208 210 212 215 199 180 182 177 149 128 123 116 113 124 132 132 128 128 139 147 150 153 159 163 164 164 163 163 162 164 167 171 176 181 184 187 190 193 196 200 206 213 222 231 237 242 247 252 258 265 269 272 275 278 280
359 356 1 13 29 35 53 186 190 194 198 200 189 176 174 169 154 143 133 119 118 126 133 141 143 142 144 150 152 153 154 155 156 157 157 157 160 165 171 175 178 181 183 185 188 190 195 202 210 219 228 234 240 246 252 258 263 268 272 277 281 284 287
4 359 3 13 32 46 58 105 156 173 182 186 178 167 166 164 159 157 154 146 137 128 121 134 148 152 154 157 157 155 153 155 158 160 160 161 165 170 173 175 176 178 179 181 185 190 199 209 219 227 234 239 245 251 257 262 268 274 279 284 288 290 292
10 4 7 14 29 50 70 87 111 143 165 171 163 156 159 158 160 169 177 179 128 94 94 103 134 158 165 165 160 156 156 158 160 159 160 164 168 171 171 172 174 176 177 181 189 199 210 220 227 232 236 240 247 255 262 270 277 283 287 290 292 294 295
16 13 14 17 22 39 67 86 103 124 143 151 147 143 151 153 158 169 177 176 117 76 83 89 110 162 182 178 169 164 164 164 162 162 165 168 169 170 172 176 179 181 184 192 200 207 216 222 226 229 235 244 255 266 274 280 285 289 292 295 297 298 299